Regional Weather Roundup
Issued by NWS

Home | Current Version | Previous Version | Text Only | Print | Product List | Glossary On
Versions: 1 2 3 4 5 6 7 8 9 10 11 12 13 14 15 16 17 18 19 20 21 22 23 24 25 26 27
000
ASUS45 KBOI 110010
RWRID

IDAHO REGIONAL WEATHER ROUNDUP
NATIONAL WEATHER SERVICE BOISE ID
500 PM MST SUN DEC 10 2017

NOTE: "FAIR" INDICATES FEW OR NO CLOUDS BELOW 12000 FEET
WITH NO SIGNIFICANT WEATHER AND/OR OBSTRUCTIONS TO VISIBILITY

IDZ012-014-110100-
SOUTHWEST IDAHO


CITY           SKY/WX    TMP DP  RH WIND       PRES   REMARKS
BOISE          CLOUDY    26  20  77 S3        30.66F
CALDWELL       CLOUDY    28  22  78 NE3       30.70S
MOUNTAIN HOME  CLOUDY    24  24 100 SE3       30.66F
$$

IDZ016-017-110100-
SOUTHCENTRAL IDAHO


CITY           SKY/WX    TMP DP  RH WIND       PRES   REMARKS
BURLEY         CLEAR     29  21  72 S3        30.56F
JEROME         CLEAR     24  19  81 W6        30.59F WCI  17
TWIN FALLS     CLEAR     21  19  92 W5        30.57F WCI  15
$$

IDZ019>023-110100-
SOUTHEAST IDAHO


CITY           SKY/WX    TMP DP  RH WIND       PRES   REMARKS
IDAHO FALLS    CLOUDY    20  18  92 CALM      30.59F
POCATELLO      CLOUDY    26  18  71 CALM      30.58F
REXBURG        CLOUDY    27  18  69 NE3       30.57S
$$

IDZ006-010-011-018-031-032-110100-
CENTRAL IDAHO MOUNTAINS


CITY           SKY/WX    TMP DP  RH WIND       PRES   REMARKS
MCCALL         CLEAR     24  15  68 CALM      30.52S
HAILEY         CLEAR     32  19  59 CALM      30.56S
STANLEY          N/A     17  11  77 CALM      30.58F
SALMON         CLOUDY    18  14  84 CALM      30.72F
CHALLIS        PTCLDY    21  12  68 CALM      30.61F
$$

IDZ002-004-006-007-026-110100-
NORTHERN IDAHO


CITY           SKY/WX    TMP DP  RH WIND       PRES   REMARKS
LEWISTON       PTCLDY    29  24  82 W7        30.62R WCI  22
LOWELL           N/A     30  27  88 N3        30.61S
COEUR D`ALENE  CLOUDY    28  24  85 N6        30.60S WCI  22
MULLAN PASS    CLEAR     37  32  82 W3        30.47S
$$




USA.gov is the U.S. government's official web portal to all federal, state and local government web resources and services.